Regional Weather Roundup
Issued by NWS

Home | Current Version | Previous Version | Graphics & Text | Print | Product List | Glossary On
Versions: 1 2 3 4 5 6 7 8 9 10 11 12 13 14 15 16 17 18 19 20 21 22 23 24 25 26 27 28 29 30 31 32 33 34 35 36 37 38 39 40 41 42 43 44 45 46 47 48 49 50
000
ASUS45 KCYS 042010
RWRWY

WYOMING REGIONAL WEATHER ROUNDUP
NATIONAL WEATHER SERVICE CHEYENNE WY
100 PM MST WED MAR 04 2015

NOTE:  "FAIR" INDICATES FEW OR NO CLOUDS BELOW 12,000 FEET
WITH NO SIGNIFICANT WEATHER AND/OR OBSTRUCTIONS TO VISIBILITY.

WYZ001-042100-
YELLOWSTONE NATIONAL PARK

CITY           SKY/WX    TMP DP  RH WIND       PRES   REMARKS
LK YELLOWSTONE   N/A      9  -5  53 VRB3      30.05S
W YELLOWSTONE  NOT AVBL

$$
WYZ002>013-054>058-071-098>099-042100-
NORTHERN WYOMING

CITY           SKY/WX    TMP DP  RH WIND       PRES   REMARKS
JACKSON        SUNNY     16   3  57 CALM      30.12
CODY           FAIR      19   5  53 CALM      30.09S
GREYBULL       MIX PCPN  20   0  41 SE9       30.19F WCI   9
WORLAND        FAIR      19   3  49 S7        30.17F WCI  10
SHERIDAN       FAIR      12   1  61 SW3       30.16F
BUFFALO        FAIR      13   1  59 SE9       30.09F WCI   1
GILLETTE       FAIR      13   0  56 W9        30.14F WCI   1
HULETT         FAIR      12  -2  52 NW8       30.14F WCI   1
NEWCASTLE      FAIR      18  -8  32 NW18      30.15F WCI   2

$$
WYZ014>020-022>026-101>103-042100-
CENTRAL WYOMING

CITY           SKY/WX    TMP DP  RH WIND       PRES   REMARKS
BIG PINEY      FAIR      25  -2  31 N13       30.06  WCI  14
PINEDALE       FAIR      18   0  45 W16       30.06S WCI   3
DUBOIS         FAIR      19  -4  35 NW18      29.98S WCI   4
LANDER         FAIR      11   1  64 CALM      30.11F
RIVERTON       FAIR       8   1  73 SE6       30.13F WCI  -2
CASPER         FAIR      14   3  61 SW21      30.10F WCI  -4
DOUGLAS        FAIR      10   1  67 S3        30.12F

$$
WYZ021-027>030-104>119-042100-
SOUTHERN WYOMING

CITY           SKY/WX    TMP DP  RH WIND       PRES   REMARKS
EVANSTON       FAIR      26  13  57 W12       30.10R WCI  16
FORT BRIDGER   FAIR      28  14  57 W15G21    30.12R WCI  16
ROCK SPRINGS   PTSUNNY   15  10  80 W6        30.08F WCI   6
DIXON          CLOUDY    20  10  65 W5        30.12S WCI  14
RAWLINS        FAIR       9   3  77 VRB6      30.07F WCI  -1
SARATOGA       FAIR       9   1  72 CALM      30.07S
LARAMIE        FAIR      10  -5  50 NW8       29.99F WCI  -2
CHEYENNE       FAIR      17   4  56 W6        30.05F WCI   9
TORRINGTON     FAIR      21   2  43 CALM      30.15F
PINE BLUFFS    MOCLDY    23   3  42 NW14G22   30.10F WCI  11

$$


USA.gov is the U.S. government's official web portal to all federal, state and local government web resources and services.